START_TIME,STEP,MOV.,M29,t_acc.,H22,t_acc.,H26,t_acc.,H30,t_acc.
1979-03-02 12:00:21.370 ,4,1,0.,24.0,0.,24.0,0.,24.0,0.,24.0
1979-03-02 12:00:45.370 ,3,1,0.,24.0,0.,24.0,0.,24.0,0.,24.0
1979-03-02 12:01:09.370 ,2,1,0.,24.0,0.,24.0,0.,24.0,0.,24.0
1979-03-02 12:01:33.370 ,1,1,0.,24.0,0.,24.0,0.,24.0,0.,24.0
1979-03-02 12:01:57.370 ,0,1,0.,24.0,0.,24.0,0.,24.0,0.,24.0
1979-03-02 12:02:21.370 ,0,1,0.,24.0,0.,24.0,0.,24.0,0.,24.0
1979-03-02 12:02:45.370 ,1,1,0.,24.0,0.,24.0,0.,24.0,0.,24.0
1979-03-02 12:03:09.370 ,2,1,0.,24.0,0.,24.0,0.,24.0,0.,24.0
1979-03-02 12:03:33.370 ,3,1,0.,24.0,0.,24.0,0.,24.0,0.,24.0
1979-03-02 12:03:57.370 ,4,1,0.,24.0,0.,24.0,0.,24.0,0.,24.0
1979-03-02 12:04:21.370 ,5,1,0.,24.0,0.,24.0,0.,24.0,0.,24.0
1979-03-02 12:04:45.370 ,6,1,0.,24.0,0.,24.0,0.,24.0,0.,24.0
1979-03-02 12:05:09.370 ,7,1,0.,24.0,0.,24.0,0.,24.0,0.,24.0
1979-03-02 12:06:21.370 ,0,0,0.,24.0,0.,24.0,0.,24.0,0.,24.0
1979-03-02 12:06:45.370 ,4,1,0.,24.0,0.,24.0,0.,24.0,0.,24.0
1979-03-02 12:07:09.370 ,3,1,0.,24.0,0.,24.0,0.,24.0,0.,24.0
1979-03-02 12:07:33.370 ,2,1,0.,24.0,0.,24.0,0.,24.0,0.,24.0
1979-03-02 12:07:57.370 ,1,1,0.,24.0,0.,24.0,0.,24.0,0.,24.0
1979-03-02 12:08:21.370 ,0,1,0.,24.0,0.,24.0,0.,24.0,0.,24.0
1979-03-02 12:08:45.370 ,0,1,0.,24.0,0.,24.0,0.,24.0,0.,24.0
1979-03-02 12:09:09.370 ,1,1,0.,24.0,0.,24.0,0.,24.0,0.,24.0
1979-03-02 12:09:33.370 ,2,1,0.,24.0,0.,24.0,0.,24.0,0.,24.0
1979-03-02 12:09:57.370 ,3,1,0.,24.0,0.,24.0,0.,24.0,0.,24.0
1979-03-02 12:10:21.370 ,4,1,0.,24.0,0.,24.0,0.,24.0,0.,24.0
1979-03-02 12:10:45.370 ,5,1,0.,24.0,0.,24.0,0.,24.0,0.,24.0
1979-03-02 12:11:09.370 ,6,1,0.,24.0,0.,24.0,0.,24.0,0.,24.0
1979-03-02 12:11:33.370 ,7,1,0.,24.0,0.,24.0,0.,24.0,0.,24.0
1979-03-02 12:11:57.370 ,7,1,0.,24.0,0.,24.0,0.,24.0,0.,24.0
1979-03-02 12:12:21.370 ,6,1,0.,24.0,0.,24.0,0.,24.0,0.,24.0
1979-03-02 12:12:45.370 ,5,1,0.,24.0,0.,24.0,0.,24.0,0.,24.0
1979-03-02 12:13:09.370 ,4,1,0.,24.0,0.,24.0,0.,24.0,0.,24.0
1979-03-02 12:13:33.370 ,3,1,0.,24.0,0.,24.0,0.,24.0,0.,24.0
1979-03-02 12:13:57.370 ,2,1,0.,24.0,0.,24.0,0.,24.0,0.,24.0
1979-03-02 12:14:21.370 ,1,1,0.,24.0,0.,24.0,0.,24.0,0.,24.0
1979-03-02 12:14:45.370 ,0,1,0.,24.0,0.,24.0,0.,24.0,0.,24.0
1979-03-02 12:15:09.370 ,0,1,0.,24.0,0.,24.0,0.,24.0,0.,24.0
1979-03-02 12:15:33.370 ,1,1,0.,24.0,0.,24.0,0.,24.0,0.,24.0
1979-03-02 12:15:57.370 ,2,1,0.,24.0,0.,24.0,0.,24.0,0.,24.0
1979-03-02 12:16:21.370 ,3,1,0.,24.0,0.,24.0,0.,24.0,0.,24.0
1979-03-02 12:16:45.370 ,4,1,0.,24.0,0.,24.0,0.,24.0,0.,24.0
1979-03-02 12:17:09.370 ,5,1,0.,24.0,0.,24.0,0.,24.0,0.,24.0
1979-03-02 12:17:33.370 ,6,1,0.,24.0,0.,24.0,0.,24.0,0.,24.0
1979-03-02 12:17:57.370 ,7,1,0.,24.0,0.,24.0,0.,24.0,0.,24.0
1979-03-02 12:18:21.370 ,7,1,0.,24.0,0.,24.0,0.,24.0,0.,24.0
1979-03-02 12:18:45.370 ,6,1,0.,24.0,0.,24.0,0.,24.0,0.,24.0
1979-03-02 12:19:09.370 ,5,1,0.,24.0,0.,24.0,0.,24.0,0.,24.0
1979-03-02 12:19:33.370 ,4,1,0.,24.0,0.,24.0,0.,24.0,0.,24.0
1979-03-02 12:19:57.370 ,3,1,0.,24.0,0.,24.0,0.,24.0,0.,24.0
1979-03-02 12:20:21.370 ,2,1,0.,24.0,0.,24.0,0.,24.0,0.,24.0
1979-03-02 12:20:45.370 ,1,1,0.,24.0,0.,24.0,0.,24.0,0.,24.0
1979-03-02 12:21:09.370 ,0,1,0.,24.0,0.,24.0,0.,24.0,0.,24.0
1979-03-02 12:21:33.370 ,0,1,0.,24.0,0.,24.0,0.,24.0,0.,24.0
1979-03-02 12:21:57.370 ,1,1,0.,24.0,0.,24.0,0.,24.0,0.,24.0
1979-03-02 12:22:21.370 ,2,1,0.,24.0,0.,24.0,0.,24.0,0.,24.0
1979-03-02 12:22:45.370 ,3,1,0.,24.0,0.,24.0,0.,24.0,0.,24.0
1979-03-02 12:23:09.370 ,4,1,0.,24.0,0.,24.0,0.,24.0,0.,24.0
1979-03-02 12:23:33.370 ,5,1,0.,24.0,0.,24.0,0.,24.0,0.,24.0
1979-03-02 12:23:57.370 ,6,1,0.,24.0,0.,24.0,0.,24.0,0.,24.0
1979-03-02 12:24:21.370 ,7,1,0.,24.0,0.,24.0,0.,24.0,0.,24.0
1979-03-02 12:24:45.370 ,7,1,0.,24.0,0.,24.0,0.,24.0,0.,24.0
1979-03-02 12:25:09.370 ,6,1,0.,24.0,0.,24.0,0.,24.0,0.,24.0
1979-03-02 12:25:33.370 ,5,1,0.,24.0,0.,24.0,0.,24.0,0.,24.0
1979-03-02 12:25:57.370 ,4,1,0.,24.0,0.,24.0,0.,24.0,0.,24.0
1979-03-02 12:26:21.370 ,3,1,0.,24.0,0.,24.0,0.,24.0,0.,24.0
1979-03-02 12:26:45.370 ,2,1,0.,24.0,0.,24.0,0.,24.0,0.,24.0
1979-03-02 12:27:09.370 ,1,1,0.,24.0,0.,24.0,0.,24.0,0.,24.0
1979-03-02 12:27:33.370 ,0,1,0.,24.0,0.,24.0,0.,24.0,0.,24.0
1979-03-02 12:27:57.370 ,0,1,0.,24.0,0.,24.0,0.,24.0,0.,24.0
1979-03-02 12:28:21.370 ,1,1,0.,24.0,0.,24.0,0.,24.0,0.,24.0
1979-03-02 12:28:45.370 ,2,1,0.,24.0,0.,24.0,0.,24.0,0.,24.0
1979-03-02 12:29:09.370 ,3,1,0.,24.0,0.,24.0,0.,24.0,0.,24.0
1979-03-02 12:29:33.370 ,4,1,0.,24.0,0.,24.0,0.,24.0,0.,24.0
1979-03-02 12:29:57.370 ,5,1,0.,24.0,0.,24.0,0.,24.0,0.,24.0
1979-03-02 12:30:21.370 ,6,1,0.,24.0,0.,24.0,0.,24.0,0.,24.0
1979-03-02 12:30:45.370 ,7,1,0.,24.0,0.,24.0,0.,24.0,0.,24.0
1979-03-02 12:31:09.370 ,7,1,0.,24.0,0.,24.0,0.,24.0,0.,24.0
1979-03-02 12:31:33.370 ,6,1,0.,24.0,0.,24.0,0.,24.0,0.,24.0
1979-03-02 12:31:57.370 ,5,1,0.,24.0,0.,24.0,0.,24.0,0.,24.0
1979-03-02 12:32:21.370 ,4,1,0.,24.0,0.,24.0,0.,24.0,0.,24.0
1979-03-02 12:32:45.370 ,3,1,0.,24.0,0.,24.0,0.,24.0,0.,24.0
1979-03-02 12:33:09.370 ,2,1,0.,24.0,0.,24.0,0.,24.0,0.,24.0
1979-03-02 12:33:33.370 ,1,1,0.,24.0,0.,24.0,0.,24.0,0.,24.0
1979-03-02 12:33:57.370 ,0,1,0.,24.0,0.,24.0,0.,24.0,0.,24.0
1979-03-02 12:34:21.370 ,0,1,0.,24.0,0.,24.0,0.,24.0,0.,24.0
1979-03-02 12:34:45.370 ,1,1,0.,24.0,0.,24.0,0.,24.0,0.,24.0
1979-03-02 12:35:09.370 ,2,1,0.,24.0,0.,24.0,0.,24.0,0.,24.0
1979-03-02 12:35:33.370 ,3,1,0.,24.0,0.,24.0,0.,24.0,0.,24.0
1979-03-02 12:35:57.370 ,4,1,0.,24.0,0.,24.0,0.,24.0,0.,24.0
1979-03-02 12:36:21.370 ,5,1,0.,24.0,0.,24.0,0.,24.0,0.,24.0
1979-03-02 12:36:45.370 ,6,1,0.,24.0,0.,24.0,0.,24.0,0.,24.0
1979-03-02 12:37:09.370 ,7,1,0.,24.0,0.,24.0,0.,24.0,0.,24.0
1979-03-02 12:37:33.370 ,7,1,0.,24.0,0.,24.0,0.,24.0,0.,24.0
1979-03-02 12:37:57.370 ,6,1,0.,24.0,0.,24.0,0.,24.0,0.,24.0
1979-03-02 12:38:21.370 ,5,1,0.,24.0,0.,24.0,0.,24.0,0.,24.0
1979-03-02 12:38:45.370 ,4,1,0.,24.0,0.,24.0,0.,24.0,0.,24.0
1979-03-02 12:39:09.370 ,3,1,0.,24.0,0.,24.0,0.,24.0,0.,24.0
1979-03-02 12:39:33.370 ,2,1,0.,24.0,0.,24.0,0.,24.0,0.,24.0
1979-03-02 12:39:57.370 ,1,1,0.,24.0,0.,24.0,0.,24.0,0.,24.0
1979-03-02 12:40:21.370 ,0,1,0.,24.0,0.,24.0,0.,24.0,0.,24.0
1979-03-02 12:40:45.370 ,0,1,0.,24.0,0.,24.0,0.,24.0,0.,24.0
1979-03-02 12:41:09.370 ,1,1,0.,24.0,0.,24.0,0.,24.0,0.,24.0
1979-03-02 12:41:33.370 ,2,1,0.,24.0,0.,24.0,0.,24.0,0.,24.0
1979-03-02 12:41:57.370 ,3,1,0.,24.0,0.,24.0,0.,24.0,0.,24.0
1979-03-02 12:42:21.370 ,4,1,0.,24.0,0.,24.0,0.,24.0,0.,24.0
1979-03-02 12:42:45.370 ,5,1,0.,24.0,0.,24.0,0.,24.0,0.,24.0
1979-03-02 12:43:09.370 ,6,1,0.,24.0,0.,24.0,0.,24.0,0.,24.0
1979-03-02 12:43:33.370 ,7,1,0.,24.0,0.,24.0,0.,24.0,0.,24.0
1979-03-02 12:43:57.370 ,7,1,0.,24.0,0.,24.0,0.,24.0,0.,24.0
1979-03-02 12:44:21.370 ,6,1,0.,24.0,0.,24.0,0.,24.0,0.,24.0
1979-03-02 12:44:45.370 ,5,1,0.,24.0,0.,24.0,0.,24.0,0.,24.0
1979-03-02 12:45:09.370 ,4,1,0.,24.0,0.,24.0,0.,24.0,0.,24.0
1979-03-02 12:45:33.370 ,3,1,0.,24.0,0.,24.0,0.,24.0,0.,24.0
1979-03-02 12:45:57.370 ,2,1,0.,24.0,0.,24.0,0.,24.0,0.,24.0
1979-03-02 12:46:21.370 ,1,1,0.,24.0,0.,24.0,0.,24.0,0.,24.0
1979-03-02 12:46:45.370 ,0,1,0.,24.0,0.,24.0,0.,24.0,0.,24.0
1979-03-02 12:47:09.370 ,0,1,0.,24.0,0.,24.0,0.,24.0,0.,24.0
1979-03-02 12:47:33.370 ,1,1,0.,24.0,0.,24.0,0.,24.0,0.,24.0
1979-03-02 12:47:57.370 ,2,1,0.,24.0,0.,24.0,0.,24.0,0.,24.0
1979-03-02 12:48:21.370 ,3,1,0.,24.0,0.,24.0,0.,24.0,0.,24.0
1979-03-02 12:48:45.370 ,4,1,0.,24.0,0.,24.0,0.,24.0,0.,24.0
1979-03-02 12:49:09.370 ,5,1,0.,24.0,0.,24.0,0.,24.0,0.,24.0
1979-03-02 12:49:33.370 ,6,1,0.,24.0,0.,24.0,0.,24.0,0.,24.0
1979-03-02 12:49:57.370 ,7,1,0.,24.0,0.,24.0,0.,24.0,0.,24.0
1979-03-02 12:50:21.370 ,7,1,0.,24.0,0.,24.0,0.,24.0,0.,24.0
1979-03-02 12:50:45.370 ,6,1,0.,24.0,0.,24.0,0.,24.0,0.,24.0
1979-03-02 12:51:09.370 ,5,1,0.,24.0,0.,24.0,0.,24.0,0.,24.0
1979-03-02 12:51:33.370 ,4,1,0.,24.0,0.,24.0,0.,24.0,0.,24.0
1979-03-02 12:51:57.370 ,3,1,0.,24.0,0.,24.0,0.,24.0,0.,24.0
1979-03-02 12:52:21.370 ,2,1,0.,24.0,0.,24.0,0.,24.0,0.,24.0
1979-03-02 12:52:45.370 ,1,1,0.,24.0,0.,24.0,0.,24.0,0.,24.0
1979-03-02 12:53:09.370 ,0,1,0.,24.0,0.,24.0,0.,24.0,0.,24.0
1979-03-02 12:53:33.370 ,0,1,0.,24.0,0.,24.0,0.,24.0,0.,24.0
1979-03-02 12:53:57.370 ,1,1,0.,24.0,0.,24.0,0.,24.0,0.,24.0
1979-03-02 12:54:21.370 ,2,1,0.,24.0,0.,24.0,0.,24.0,0.,24.0
1979-03-02 12:54:45.370 ,3,1,0.,24.0,0.,24.0,0.,24.0,0.,24.0
1979-03-02 12:55:09.370 ,4,1,0.,24.0,0.,24.0,0.,24.0,0.,24.0
1979-03-02 12:55:33.370 ,5,1,0.,24.0,0.,24.0,0.,24.0,0.,24.0
1979-03-02 12:55:57.370 ,6,1,0.,24.0,0.,24.0,0.,24.0,0.,24.0
1979-03-02 12:56:21.370 ,7,1,0.,24.0,0.,24.0,0.,24.0,0.,24.0
1979-03-02 12:56:45.370 ,7,1,0.,24.0,0.,24.0,0.,24.0,0.,24.0
1979-03-02 12:57:09.370 ,6,1,0.,24.0,0.,24.0,0.,24.0,0.,24.0
1979-03-02 12:57:33.370 ,5,1,0.,24.0,0.,24.0,0.,24.0,0.,24.0
1979-03-02 12:57:57.370 ,4,1,0.,24.0,0.,24.0,0.,24.0,0.,24.0
1979-03-02 12:58:21.370 ,3,1,0.,24.0,0.,24.0,0.,24.0,0.,24.0
1979-03-02 12:58:45.370 ,2,1,0.,24.0,0.,24.0,0.,24.0,0.,24.0
1979-03-02 12:59:09.370 ,1,1,0.,24.0,0.,24.0,0.,24.0,0.,24.0
1979-03-02 12:59:33.370 ,0,1,0.,24.0,0.,24.0,0.,24.0,0.,24.0
1979-03-02 12:59:57.370 ,0,1,0.,24.0,0.,24.0,0.,24.0,0.,24.0
1979-03-02 13:00:21.370 ,1,1,0.,24.0,0.,24.0,0.,24.0,0.,24.0
1979-03-02 13:00:45.370 ,2,1,0.,24.0,0.,24.0,0.,24.0,0.,24.0
1979-03-02 13:01:09.370 ,3,1,0.,24.0,0.,24.0,0.,24.0,0.,24.0
1979-03-02 13:01:33.370 ,4,1,0.,24.0,0.,24.0,0.,24.0,0.,24.0
1979-03-02 13:01:57.370 ,5,1,0.,24.0,0.,24.0,0.,24.0,0.,24.0
1979-03-02 13:02:21.370 ,6,1,0.,24.0,0.,24.0,0.,24.0,0.,24.0
1979-03-02 13:03:09.370 ,7,1,0.,24.0,0.,24.0,0.,24.0,0.,24.0
1979-03-02 13:03:33.370 ,6,1,0.,24.0,0.,24.0,0.,24.0,0.,24.0
1979-03-02 13:03:57.370 ,5,1,0.,24.0,0.,24.0,0.,24.0,0.,24.0
1979-03-02 13:04:21.370 ,4,1,0.,24.0,0.,24.0,0.,24.0,0.,24.0
1979-03-02 13:04:45.370 ,3,1,0.,24.0,0.,24.0,0.,24.0,0.,24.0
1979-03-02 13:05:09.370 ,2,1,0.,24.0,0.,24.0,0.,24.0,0.,24.0
1979-03-02 13:05:33.370 ,1,1,0.,24.0,0.,24.0,0.,24.0,0.,24.0
1979-03-02 13:05:57.370 ,0,1,0.,24.0,0.,24.0,0.,24.0,0.,24.0
1979-03-02 13:06:21.370 ,0,1,0.,24.0,0.,24.0,0.,24.0,0.,24.0
1979-03-02 13:06:45.370 ,1,1,0.,24.0,0.,24.0,0.,24.0,0.,24.0
1979-03-02 13:07:09.370 ,2,1,0.,24.0,0.,24.0,0.,24.0,0.,24.0
1979-03-02 13:07:33.370 ,3,1,0.,24.0,0.,24.0,0.,24.0,0.,24.0
1979-03-02 13:07:57.370 ,4,1,0.,24.0,0.,24.0,0.,24.0,0.,24.0
1979-03-02 13:08:21.370 ,5,1,0.,24.0,0.,24.0,0.,24.0,0.,24.0
1979-03-02 13:08:45.370 ,6,1,0.,24.0,0.,24.0,0.,24.0,0.,24.0
1979-03-02 13:09:09.370 ,7,1,0.,24.0,0.,24.0,0.,24.0,0.,24.0
1979-03-02 13:09:33.370 ,7,1,0.,24.0,0.,24.0,0.,24.0,0.,24.0
1979-03-02 13:09:57.370 ,6,1,0.,24.0,0.,24.0,0.,24.0,0.,24.0
1979-03-02 13:10:21.370 ,5,1,0.,24.0,0.,24.0,0.,24.0,0.,24.0
1979-03-02 13:10:45.370 ,4,1,0.,24.0,0.,24.0,0.,24.0,0.,24.0
1979-03-02 13:11:09.370 ,3,1,0.,24.0,0.,24.0,0.,24.0,0.,24.0
1979-03-02 13:11:33.370 ,2,1,0.,24.0,0.,24.0,0.,24.0,0.,24.0
1979-03-02 13:11:57.370 ,1,1,0.,24.0,0.,24.0,0.,24.0,0.,24.0
1979-03-02 13:12:21.370 ,0,1,0.,24.0,0.,24.0,0.,24.0,0.,24.0
1979-03-02 13:12:45.370 ,0,1,0.,24.0,0.,24.0,0.,24.0,0.,24.0
1979-03-02 13:13:09.370 ,1,1,0.,24.0,0.,24.0,0.,24.0,0.,24.0
1979-03-02 13:13:33.370 ,2,1,0.,24.0,0.,24.0,0.,24.0,0.,24.0
1979-03-02 13:13:57.370 ,3,1,0.,24.0,0.,24.0,0.,24.0,0.,24.0
1979-03-02 13:14:21.370 ,4,1,0.,24.0,0.,24.0,0.,24.0,0.,24.0
1979-03-02 13:14:45.370 ,5,1,0.,24.0,0.,24.0,0.,24.0,0.,24.0
1979-03-02 13:15:09.370 ,6,1,0.,24.0,0.,24.0,0.,24.0,0.,24.0
1979-03-02 13:15:33.370 ,7,1,0.,24.0,0.,24.0,0.,24.0,0.,24.0
1979-03-02 13:15:57.370 ,7,1,0.,24.0,0.,24.0,0.,24.0,0.,24.0
1979-03-02 13:16:21.370 ,6,1,0.,24.0,0.,24.0,0.,24.0,0.,24.0
1979-03-02 13:16:45.370 ,5,1,0.,24.0,0.,24.0,0.,24.0,0.,24.0
1979-03-02 13:17:09.370 ,4,1,0.,24.0,0.,24.0,0.,24.0,0.,24.0
1979-03-02 13:17:33.370 ,3,1,0.,24.0,0.,24.0,0.,24.0,0.,24.0
1979-03-02 13:17:57.370 ,2,1,0.,24.0,0.,24.0,0.,24.0,0.,24.0
1979-03-02 13:18:21.370 ,1,1,0.,24.0,0.,24.0,0.,24.0,0.,24.0
1979-03-02 13:18:45.370 ,0,1,0.,24.0,0.,24.0,0.,24.0,0.,24.0
1979-03-02 13:19:09.370 ,0,1,0.,24.0,0.,24.0,0.,24.0,0.,24.0
1979-03-02 13:19:33.370 ,1,1,0.,24.0,0.,24.0,0.,24.0,0.,24.0
1979-03-02 13:19:57.370 ,2,1,0.,24.0,0.,24.0,0.,24.0,0.,24.0
1979-03-02 13:20:21.370 ,3,1,0.,24.0,0.,24.0,0.,24.0,0.,24.0
1979-03-02 13:20:45.370 ,4,1,0.,24.0,0.,24.0,0.,24.0,0.,24.0
1979-03-02 13:21:09.370 ,5,1,0.,24.0,0.,24.0,0.,24.0,0.,24.0
1979-03-02 13:21:33.370 ,6,1,0.,24.0,0.,24.0,0.,24.0,0.,24.0
1979-03-02 13:21:57.370 ,7,1,0.,24.0,0.,24.0,0.,24.0,0.,24.0
1979-03-02 13:22:21.370 ,7,1,0.,24.0,0.,24.0,0.,24.0,0.,24.0
1979-03-02 13:22:45.370 ,6,1,0.,24.0,0.,24.0,0.,24.0,0.,24.0
1979-03-02 13:23:09.370 ,5,1,0.,24.0,0.,24.0,0.,24.0,0.,24.0
1979-03-02 13:23:33.370 ,4,1,0.,24.0,0.,24.0,0.,24.0,0.,24.0
1979-03-02 13:23:57.370 ,3,1,0.,24.0,0.,24.0,0.,24.0,0.,24.0
1979-03-02 13:24:21.370 ,2,1,0.,24.0,0.,24.0,0.,24.0,0.,24.0
1979-03-02 13:24:45.370 ,0,0,0.,24.0,0.,24.0,0.,24.0,0.,24.0
1979-03-02 13:25:09.370 ,0,0,,0,,0,,0,,0
1979-03-02 13:27:59.170 ,0,0,0.,24.0,0.,24.0,0.,24.0,0.,24.0
1979-03-02 13:28:21.370 ,7,1,0.,24.0,0.,24.0,0.,24.0,0.,24.0
1979-03-02 13:28:45.370 ,7,1,0.,24.0,0.,24.0,0.,24.0,0.,24.0
1979-03-02 13:29:09.370 ,6,1,0.,24.0,0.,24.0,0.,24.0,0.,24.0
1979-03-02 13:29:33.370 ,5,1,0.,24.0,0.,24.0,0.,24.0,0.,24.0
1979-03-02 13:29:57.370 ,4,1,0.,24.0,0.,24.0,0.,24.0,0.,24.0
1979-03-02 13:30:21.370 ,3,1,0.,24.0,0.,24.0,0.,24.0,0.,24.0
1979-03-02 13:30:45.370 ,2,1,0.,24.0,0.,24.0,0.,24.0,0.,24.0
1979-03-02 13:31:09.370 ,1,1,0.,24.0,0.,24.0,0.,24.0,0.,24.0
1979-03-02 13:31:33.370 ,0,1,0.,24.0,0.,24.0,0.,24.0,0.,24.0
1979-03-02 13:31:57.370 ,0,1,0.,24.0,0.,24.0,0.,24.0,0.,24.0
1979-03-02 13:32:21.370 ,1,1,0.,24.0,0.,24.0,0.,24.0,0.,24.0
1979-03-02 13:32:45.370 ,2,1,0.,24.0,0.,24.0,0.,24.0,0.,24.0
1979-03-02 13:33:09.370 ,3,1,0.,24.0,0.,24.0,0.,24.0,0.,24.0
1979-03-02 13:33:33.370 ,4,1,0.,24.0,0.,24.0,0.,24.0,0.,24.0
1979-03-02 13:33:57.370 ,5,1,0.,24.0,0.,24.0,0.,24.0,0.,24.0
1979-03-02 13:34:21.370 ,6,1,0.,24.0,0.,24.0,0.,24.0,0.,24.0
1979-03-02 13:34:45.370 ,7,1,0.,24.0,0.,24.0,0.,24.0,0.,24.0
1979-03-02 13:35:09.370 ,7,1,0.,24.0,0.,24.0,0.,24.0,0.,24.0
1979-03-02 13:35:33.370 ,6,1,0.,24.0,0.,24.0,0.,24.0,0.,24.0
1979-03-02 13:35:57.370 ,5,1,0.,24.0,0.,24.0,0.,24.0,0.,24.0
1979-03-02 13:36:21.370 ,4,1,0.,24.0,0.,24.0,0.,24.0,0.,24.0
1979-03-02 13:36:45.370 ,3,1,0.,24.0,0.,24.0,0.,24.0,0.,24.0
1979-03-02 13:37:09.370 ,2,1,0.,24.0,0.,24.0,0.,24.0,0.,24.0
1979-03-02 13:37:33.370 ,1,1,0.,24.0,0.,24.0,0.,24.0,0.,24.0
1979-03-02 13:37:57.370 ,0,1,0.,24.0,0.,24.0,0.,24.0,0.,24.0
1979-03-02 13:38:21.370 ,0,1,0.,24.0,0.,24.0,0.,24.0,0.,24.0
1979-03-02 13:38:45.370 ,1,1,0.,24.0,0.,24.0,0.,24.0,0.,24.0
1979-03-02 13:39:09.370 ,2,1,0.,24.0,0.,24.0,0.,24.0,0.,24.0
1979-03-02 13:39:33.370 ,3,1,0.,24.0,0.,24.0,0.,24.0,0.,24.0
1979-03-02 13:39:57.370 ,4,1,0.,24.0,0.,24.0,0.,24.0,0.,24.0
1979-03-02 13:40:21.370 ,5,1,0.,24.0,0.,24.0,0.,24.0,0.,24.0
1979-03-02 13:40:45.370 ,6,1,0.,24.0,0.,24.0,0.,24.0,0.,24.0
1979-03-02 13:41:09.370 ,7,1,0.,24.0,0.,24.0,0.,24.0,0.,24.0
1979-03-02 13:41:33.370 ,7,1,0.,24.0,0.,24.0,0.,24.0,0.,24.0
1979-03-02 13:41:57.370 ,0,0,0.,24.0,0.,24.0,0.,24.0,0.,24.0
1979-03-02 13:42:58.570 ,0,0,,0,,0,,0,,0
1979-03-02 13:43:09.370 ,3,1,0.,24.0,0.,24.0,0.,24.0,0.,24.0
1979-03-02 13:43:33.370 ,0,0,0.,24.0,0.,24.0,0.,24.0,0.,24.0
1979-03-02 13:43:57.370 ,0,0,0.,24.0,0.,24.0,0.,24.0,0.,24.0
1979-03-02 13:44:21.370 ,0,1,0.,24.0,0.,24.0,0.,24.0,0.,24.0
1979-03-02 13:44:45.370 ,0,1,0.,24.0,0.,24.0,0.,24.0,0.,24.0
1979-03-02 13:45:09.370 ,1,1,0.,24.0,0.,24.0,0.,24.0,0.,24.0
1979-03-02 13:45:33.370 ,2,1,0.,24.0,0.,24.0,0.,24.0,0.,24.0
1979-03-02 13:45:57.370 ,3,1,0.,24.0,0.,24.0,0.,24.0,0.,24.0
1979-03-02 13:46:21.370 ,4,1,0.,24.0,0.,24.0,0.,24.0,0.,24.0
1979-03-02 13:46:45.370 ,5,1,0.,24.0,0.,24.0,0.,24.0,0.,24.0
1979-03-02 13:47:09.370 ,6,1,0.,24.0,0.,24.0,0.,24.0,0.,24.0
1979-03-02 13:47:33.370 ,7,1,0.,24.0,0.,24.0,0.,24.0,0.,24.0
1979-03-02 13:47:57.370 ,7,1,0.,24.0,0.,24.0,0.,24.0,0.,24.0
1979-03-02 13:48:21.370 ,6,1,0.,24.0,0.,24.0,0.,24.0,0.,24.0
1979-03-02 13:48:45.370 ,5,1,0.,24.0,0.,24.0,0.,24.0,0.,24.0
1979-03-02 13:49:09.370 ,4,1,0.,24.0,0.,24.0,0.,24.0,0.,24.0
1979-03-02 13:49:33.370 ,3,1,0.,24.0,0.,24.0,0.,24.0,0.,24.0
1979-03-02 13:49:57.370 ,2,1,0.,24.0,0.,24.0,0.,24.0,0.,24.0
1979-03-02 13:50:21.370 ,1,1,0.,24.0,0.,24.0,0.,24.0,0.,24.0
1979-03-02 13:50:45.370 ,0,1,0.,24.0,0.,24.0,0.,24.0,0.,24.0
1979-03-02 13:51:09.370 ,0,1,0.,24.0,0.,24.0,0.,24.0,0.,24.0
1979-03-02 13:51:33.370 ,1,1,0.,24.0,0.,24.0,0.,24.0,0.,24.0
1979-03-02 13:51:57.370 ,2,1,0.,24.0,0.,24.0,0.,24.0,0.,24.0
1979-03-02 13:52:21.370 ,3,1,0.,24.0,0.,24.0,0.,24.0,0.,24.0
1979-03-02 13:52:45.370 ,4,1,0.,24.0,0.,24.0,0.,24.0,0.,24.0
1979-03-02 13:53:09.370 ,5,1,0.,24.0,0.,24.0,0.,24.0,0.,24.0
1979-03-02 13:53:33.370 ,6,1,0.,24.0,0.,24.0,0.,24.0,0.,24.0
1979-03-02 13:53:57.370 ,7,1,0.,24.0,0.,24.0,0.,24.0,0.,24.0
1979-03-02 13:54:21.370 ,0,0,0.,24.0,0.,24.0,0.,24.0,0.,24.0
1979-03-02 13:54:45.370 ,6,1,0.,24.0,0.,24.0,0.,24.0,0.,24.0
1979-03-02 13:55:09.370 ,5,1,0.,24.0,0.,24.0,0.,24.0,0.,24.0
1979-03-02 13:55:33.370 ,4,1,0.,24.0,0.,24.0,0.,24.0,0.,24.0
1979-03-02 13:55:57.370 ,3,1,0.,24.0,0.,24.0,0.,24.0,0.,24.0
1979-03-02 13:56:21.370 ,2,1,0.,24.0,0.,24.0,0.,24.0,0.,24.0
1979-03-02 13:56:45.370 ,1,1,0.,24.0,0.,24.0,0.,24.0,0.,24.0
1979-03-02 13:57:09.370 ,0,1,0.,24.0,0.,24.0,0.,24.0,0.,24.0
1979-03-02 13:57:33.370 ,0,1,0.,24.0,0.,24.0,0.,24.0,0.,24.0
1979-03-02 13:57:57.370 ,1,1,0.,24.0,0.,24.0,0.,24.0,0.,24.0
1979-03-02 13:58:21.370 ,2,1,0.,24.0,0.,24.0,0.,24.0,0.,24.0
1979-03-02 13:58:45.370 ,3,1,0.,24.0,0.,24.0,0.,24.0,0.,24.0
1979-03-02 13:59:09.370 ,4,1,0.,24.0,0.,24.0,0.,24.0,0.,24.0
1979-03-02 13:59:33.370 ,5,1,0.,24.0,0.,24.0,0.,24.0,0.,24.0
1979-03-02 13:59:57.370 ,6,1,0.,24.0,0.,24.0,0.,24.0,0.,24.0
1979-03-02 14:00:21.370 ,7,1,0.,24.0,0.,24.0,0.,24.0,0.,24.0
1979-03-02 14:00:45.370 ,7,1,0.,24.0,0.,24.0,0.,24.0,0.,24.0
1979-03-02 14:01:09.370 ,6,1,0.,24.0,0.,24.0,0.,24.0,0.,24.0
1979-03-02 14:01:33.370 ,5,1,0.,24.0,0.,24.0,0.,24.0,0.,24.0
1979-03-02 14:01:57.370 ,4,1,0.,24.0,0.,24.0,0.,24.0,0.,24.0
1979-03-02 14:02:21.370 ,3,1,0.,24.0,0.,24.0,0.,24.0,0.,24.0
1979-03-02 14:02:45.370 ,2,1,0.,24.0,0.,24.0,0.,24.0,0.,24.0
1979-03-02 14:03:09.370 ,1,1,0.,24.0,0.,24.0,0.,24.0,0.,24.0
1979-03-02 14:03:33.370 ,0,1,0.,24.0,0.,24.0,0.,24.0,0.,24.0
1979-03-02 14:03:57.370 ,0,1,0.,24.0,0.,24.0,0.,24.0,0.,24.0
1979-03-02 14:04:21.370 ,1,1,0.,24.0,0.,24.0,0.,24.0,0.,24.0
1979-03-02 14:04:45.370 ,2,1,0.,24.0,0.,24.0,0.,24.0,0.,24.0
1979-03-02 14:05:09.370 ,3,1,0.,24.0,0.,24.0,0.,24.0,0.,24.0
1979-03-02 14:05:33.370 ,4,1,0.,24.0,0.,24.0,0.,24.0,0.,24.0
1979-03-02 14:05:57.370 ,5,1,0.,24.0,0.,24.0,0.,24.0,0.,24.0
1979-03-02 14:06:21.370 ,6,1,0.,24.0,0.,24.0,0.,24.0,0.,24.0
1979-03-02 14:06:45.370 ,7,1,0.,24.0,0.,24.0,0.,24.0,0.,24.0
1979-03-02 14:07:09.370 ,7,1,0.,24.0,0.,24.0,0.,24.0,0.,24.0
1979-03-02 14:07:33.370 ,6,1,0.,24.0,0.,24.0,0.,24.0,0.,24.0
1979-03-02 14:07:57.370 ,5,1,0.,24.0,0.,24.0,0.,24.0,0.,24.0
1979-03-02 14:08:21.370 ,4,1,0.,24.0,0.,24.0,0.,24.0,0.,24.0
1979-03-02 14:08:45.370 ,3,1,0.,24.0,0.,24.0,0.,24.0,0.,24.0
1979-03-02 14:09:09.370 ,2,1,0.,24.0,0.,24.0,0.,24.0,0.,24.0
1979-03-02 14:09:33.370 ,1,1,0.,24.0,0.,24.0,0.,24.0,0.,24.0
1979-03-02 14:09:57.370 ,0,1,0.,24.0,0.,24.0,0.,24.0,0.,24.0
1979-03-02 14:10:21.370 ,0,1,0.,24.0,0.,24.0,0.,24.0,0.,24.0
1979-03-02 14:10:45.370 ,1,1,0.,24.0,0.,24.0,0.,24.0,0.,24.0
1979-03-02 14:11:09.370 ,2,1,0.,24.0,0.,24.0,0.,24.0,0.,24.0
1979-03-02 14:11:33.370 ,3,1,0.,24.0,0.,24.0,0.,24.0,0.,24.0
1979-03-02 14:11:57.370 ,4,1,0.,24.0,0.,24.0,0.,24.0,0.,24.0
1979-03-02 14:12:21.370 ,5,1,0.,24.0,0.,24.0,0.,24.0,0.,24.0
1979-03-02 14:12:45.370 ,6,1,0.,24.0,0.,24.0,0.,24.0,0.,24.0
1979-03-02 14:13:09.370 ,7,1,0.,24.0,0.,24.0,0.,24.0,0.,24.0
1979-03-02 14:13:33.370 ,7,1,0.,24.0,0.,24.0,0.,24.0,0.,24.0
1979-03-02 14:13:57.370 ,6,1,0.,24.0,0.,24.0,0.,24.0,0.,24.0
1979-03-02 14:14:21.370 ,5,1,0.,24.0,0.,24.0,0.,24.0,0.,24.0
1979-03-02 14:14:45.370 ,4,1,0.,24.0,0.,24.0,0.,24.0,0.,24.0
1979-03-02 14:15:09.370 ,3,1,0.,24.0,0.,24.0,0.,24.0,0.,24.0
1979-03-02 14:15:33.370 ,2,1,0.,24.0,0.,24.0,0.,24.0,0.,24.0
1979-03-02 14:15:57.370 ,1,1,0.,24.0,0.,24.0,0.,24.0,0.,24.0
1979-03-02 14:16:21.370 ,0,1,0.,24.0,0.,24.0,0.,24.0,0.,24.0
1979-03-02 14:16:45.370 ,0,1,0.,24.0,0.,24.0,0.,24.0,0.,24.0
1979-03-02 14:17:09.370 ,1,1,0.,24.0,0.,24.0,0.,24.0,0.,24.0
1979-03-02 14:17:33.370 ,2,1,0.,24.0,0.,24.0,0.,24.0,0.,24.0
1979-03-02 14:17:57.370 ,3,1,0.,24.0,0.,24.0,0.,24.0,0.,24.0
1979-03-02 14:18:21.370 ,4,1,0.,24.0,0.,24.0,0.,24.0,0.,24.0
1979-03-02 14:18:45.370 ,5,1,0.,24.0,0.,24.0,0.,24.0,0.,24.0
1979-03-02 14:19:09.370 ,6,1,0.,24.0,0.,24.0,0.,24.0,0.,24.0
1979-03-02 14:19:33.370 ,7,1,0.,24.0,0.,24.0,0.,24.0,0.,24.0
1979-03-02 14:19:57.370 ,7,1,0.,24.0,0.,24.0,0.,24.0,0.,24.0
1979-03-02 14:20:21.370 ,6,1,0.,24.0,0.,24.0,0.,24.0,0.,24.0
1979-03-02 14:20:45.370 ,5,1,0.,24.0,0.,24.0,0.,24.0,0.,24.0
1979-03-02 14:21:09.370 ,4,1,0.,24.0,0.,24.0,0.,24.0,0.,24.0
1979-03-02 14:21:33.370 ,3,1,0.,24.0,0.,24.0,0.,24.0,0.,24.0
1979-03-02 14:21:57.370 ,2,1,0.,24.0,0.,24.0,0.,24.0,0.,24.0
1979-03-02 14:22:21.370 ,1,1,0.,24.0,0.,24.0,0.,24.0,0.,24.0
1979-03-02 14:22:45.370 ,0,1,0.,24.0,0.,24.0,0.,24.0,0.,24.0
1979-03-02 14:23:09.370 ,0,1,0.,24.0,0.,24.0,0.,24.0,0.,24.0
1979-03-02 14:23:33.370 ,1,1,0.,24.0,0.,24.0,0.,24.0,0.,24.0
1979-03-02 14:23:57.370 ,2,1,0.,24.0,0.,24.0,0.,24.0,0.,24.0
1979-03-02 14:24:21.370 ,3,1,0.,24.0,0.,24.0,0.,24.0,0.,24.0
1979-03-02 14:24:45.370 ,4,1,0.,24.0,0.,24.0,0.,24.0,0.,24.0
1979-03-02 14:25:09.370 ,5,1,0.,24.0,0.,24.0,0.,24.0,0.,24.0
1979-03-02 14:25:33.370 ,6,1,0.,24.0,0.,24.0,0.,24.0,0.,24.0
1979-03-02 14:25:57.370 ,7,1,0.,24.0,0.,24.0,0.,24.0,0.,24.0
1979-03-02 14:26:21.370 ,7,1,0.,24.0,0.,24.0,0.,24.0,0.,24.0
1979-03-02 14:26:45.370 ,6,1,0.,24.0,0.,24.0,0.,24.0,0.,24.0
1979-03-02 14:27:09.370 ,5,1,0.,24.0,0.,24.0,0.,24.0,0.,24.0
1979-03-02 14:27:33.370 ,4,1,0.,24.0,0.,24.0,0.,24.0,0.,24.0
1979-03-02 14:27:57.370 ,3,1,0.,24.0,0.,24.0,0.,24.0,0.,24.0
1979-03-02 14:28:21.370 ,2,1,0.,24.0,0.,24.0,0.,24.0,0.,24.0
1979-03-02 14:28:45.370 ,1,1,0.,24.0,0.,24.0,0.,24.0,0.,24.0
1979-03-02 14:29:09.370 ,0,1,0.,24.0,0.,24.0,0.,24.0,0.,24.0
1979-03-02 14:29:33.370 ,0,1,0.,24.0,0.,24.0,0.,24.0,0.,24.0
1979-03-02 14:29:57.370 ,1,1,0.,24.0,0.,24.0,0.,24.0,0.,24.0
1979-03-02 14:30:21.370 ,2,1,0.,24.0,0.,24.0,0.,24.0,0.,24.0
1979-03-02 14:30:45.370 ,3,1,0.,24.0,0.,24.0,0.,24.0,0.,24.0
1979-03-02 14:31:09.370 ,4,1,0.,24.0,0.,24.0,0.,24.0,0.,24.0
1979-03-02 14:31:33.370 ,5,1,0.,24.0,0.,24.0,0.,24.0,0.,24.0
1979-03-02 14:31:57.370 ,6,1,0.,24.0,0.,24.0,0.,24.0,0.,24.0
1979-03-02 14:32:21.370 ,7,1,0.,24.0,0.,24.0,0.,24.0,0.,24.0
1979-03-02 14:32:45.370 ,0,0,0.,24.0,0.,24.0,0.,24.0,0.,24.0
1979-03-02 14:33:09.370 ,0,0,,0,,0,,0,,0
1979-03-02 14:33:35.770 ,0,0,0.,24.0,0.,24.0,0.,24.0,0.,24.0
1979-03-02 14:33:57.370 ,4,1,0.,24.0,0.,24.0,0.,24.0,0.,24.0
1979-03-02 14:34:21.370 ,3,1,0.,24.0,0.,24.0,0.,24.0,0.,24.0
1979-03-02 14:34:45.370 ,2,1,0.,24.0,0.,24.0,0.,24.0,0.,24.0
1979-03-02 14:35:09.370 ,1,1,0.,24.0,0.,24.0,0.,24.0,0.,24.0
1979-03-02 14:35:33.370 ,0,1,0.,24.0,0.,24.0,0.,24.0,0.,24.0
1979-03-02 14:35:57.370 ,0,1,0.,24.0,0.,24.0,0.,24.0,0.,24.0
1979-03-02 14:36:21.370 ,1,1,0.,24.0,0.,24.0,0.,24.0,0.,24.0
1979-03-02 14:36:45.370 ,2,1,0.,24.0,0.,24.0,0.,24.0,0.,24.0
1979-03-02 14:37:09.370 ,3,1,0.,24.0,0.,24.0,0.,24.0,0.,24.0
1979-03-02 14:37:33.370 ,4,1,0.,24.0,0.,24.0,0.,24.0,0.,24.0
1979-03-02 14:37:57.370 ,5,1,0.,24.0,0.,24.0,0.,24.0,0.,24.0
1979-03-02 14:38:21.370 ,6,1,0.,24.0,0.,24.0,0.,24.0,0.,24.0
1979-03-02 14:38:45.370 ,7,1,0.,24.0,0.,24.0,0.,24.0,0.,24.0